This is the latest recevied weather packets stored in our database for station/object N0MR. If no packets are shown the sender has not sent any weather packets the latest 10 day(s).
| Time | Temp. | Humidity | Pressure | Rain* | Wind** | Luminosity | Snow |
|---|---|---|---|---|---|---|---|
| 1778095895 | 3.89° C | 56% | 1014.1 hPa | 0 mm | - | - | - |
| 1778095295 | 3.89° C | 56% | 1014.1 hPa | 0 mm | - | - | - |
| 1778094696 | 3.89° C | 55% | 1014.2 hPa | 0 mm | - | - | - |
| 1778094096 | 3.89° C | 55% | 1014.2 hPa | 0 mm | - | - | - |
| 1778093495 | 3.33° C | 59% | 1014.3 hPa | 0 mm | - | - | - |
| 1778092896 | 3.33° C | 59% | 1014.3 hPa | 0 mm | - | - | - |
| 1778092295 | 3.33° C | 59% | 1014.3 hPa | 0 mm | - | - | - |
| 1778091695 | 3.33° C | 59% | 1014.3 hPa | 0 mm | - | - | - |
| 1778091096 | 2.78° C | 61% | 1014.3 hPa | 0 mm | - | - | - |
| 1778090496 | 2.78° C | 61% | 1014.3 hPa | 0 mm | - | - | - |
| 1778089295 | 2.22° C | 63% | 1014.5 hPa | 0 mm | - | - | - |
| 1778088096 | 2.22° C | 63% | 1014.5 hPa | 0 mm | - | - | - |
| 1778087495 | 2.22° C | 61% | 1014.6 hPa | 0 mm | - | - | - |
| 1778086896 | 2.78° C | 60% | 1014.6 hPa | 0 mm | - | - | - |
| 1778086296 | 2.78° C | 60% | 1014.6 hPa | 0 mm | - | - | - |
| 1778085696 | 2.78° C | 59% | 1014.4 hPa | 0 mm | - | - | - |
| 1778085096 | 2.78° C | 59% | 1014.4 hPa | 0 mm | - | - | - |
| 1778084495 | 2.22° C | 59% | 1014.5 hPa | 0 mm | - | - | - |
| 1778083896 | 2.22° C | 59% | 1014.5 hPa | 0 mm | - | - | - |
| 1778083296 | 2.22° C | 61% | 1014.5 hPa | 0 mm | - | - | - |
| 1778082696 | 2.22° C | 61% | 1014.5 hPa | 0 mm | - | - | - |
| 1778082096 | 2.22° C | 60% | 1014.4 hPa | 0 mm | - | - | - |
| 1778081497 | 2.22° C | 60% | 1014.4 hPa | 0 mm | - | - | - |
| 1778080897 | 1.67° C | 63% | 1014.6 hPa | 0 mm | - | - | - |
| 1778080297 | 1.67° C | 63% | 1014.6 hPa | 0 mm | - | - | - |
* Rain latest hour (hover to see other rain measurements)
** Current wind speed in m/s (hover to see current wind gust speed)